Location: Acheville
(50.3840°N, 2.8827°E)
Time: 18:18:59
(UTC+00:00)

Cosmos 1892 - Pass Details

Date: 24 October 2021
Orbit: 501 x 522 km, 82.5° (Epoch: 06 December)

Event Time Altitude Azimuth Distance (km) Brightness Sun altitude
Rises 17:09:13 0° 5° (N) 2,622 6.1 -5.5°
Reaches altitude 10° 17:12:15 10° 32° (NNE) 1,727 5.0 -6.0°
Maximum altitude 17:14:16 14° 64° (ENE) 1,492 4.4 -6.3°
Drops below altitude 10° 17:16:17 10° 97° (E) 1,716 4.7 -6.6°
Enters shadow 17:18:21 - 117° (ESE) 2,279 5.5 -7.0°
